TIME,DELAY(SENSOR),PRES,OXYGEN,RAWTEMP,T(OPTODE),TCPHASE,FLUOR,BETA(BETA700),BETA(BETA412),BETA(BETA440),CDOM,C(CSC),ED(ED412.20),ED(ED444.00),ED(ED489.60),ED(ED554.30),LU(LU412.10),LU(LU443.90),LU(LU489.70),LU(LU554.70),COMP,TILTX,TILTY,CHECK
1350789414,5807,889.4400024414062000,35.0087013244628900,556.4221801757812000,4.5967249870300290,56.2433395385742200,55,101,100,78,82,15547,0,0,0,0,2147123419,2147773760,2147575168,2147573449,2853,3,13,50106
1350793010,5811,957.7999877929688000,40.2671699523925800,564.0891723632812000,4.3590931892395020,55.5150184631347660,56,101,100,77,82,15542,0,0,0,0,2147123721,2147778130,2147574802,2147567186,3474,3,13,21926
1350796610,5808,970.9199829101562000,40.7899208068847660,564.6514892578125000,4.3416481018066410,55.4431800842285160,55,98,101,78,83,15542,0,0,0,0,2147125120,2147775305,2147570340,2147570733,353,3,13,9155
1350800210,5807,974.0300292968750000,40.9522094726562500,564.6856079101562000,4.3405900001525880,55.4151191711425800,55,99,100,78,82,15543,0,0,0,0,2147122285,2147772772,2147570166,2147570249,3262,3,13,43789
1350803810,5805,972.2800292968750000,41.2618293762207000,566.0607910156250000,4.2979087829589840,55.3891410827636700,55,99,100,78,82,15542,0,0,0,0,2147124224,2147771437,2147574043,2147569801,290,3,13,39935
1350807410,5806,980.1699829101562000,40.9431610107421900,566.2952880859375000,4.2906270027160645,55.4381790161132800,56,100,100,77,81,15541,0,0,0,0,2147124992,2147775259,2147573129,2147568932,3060,3,13,7409
1350811010,5808,978.3099975585938000,40.9301109313964840,566.2880249023438000,4.2908539772033690,55.4398002624511700,54,100,100,79,82,15538,0,0,0,0,2147122944,2147778441,2147571620,2147571254,368,3,13,54399
1350814610,5809,983.0700073242188000,40.6585693359375000,566.2125854492188000,4.2931938171386720,55.4738197326660160,55,98,100,78,81,15538,0,0,0,0,2147122422,2147773001,2147570550,2147572973,3354,3,13,30034
1350818210,5808,980.2199707031250000,40.4468803405761700,566.2503051757812000,4.2920250892639160,55.5087890625000000,54,100,101,78,83,15537,0,0,0,0,2147124644,2147773312,2147574244,2147570038,296,3,13,37381
1350821810,5809,983.5000000000000000,39.5650291442871100,565.9818115234375000,4.3003602027893070,55.6348609924316400,56,106,100,79,82,15537,0,0,0,0,2147127314,2147770678,2147572397,2147572169,716,3,13,43061
1350825410,5812,983.8699951171875000,40.4336700439453100,566.1749877929688000,4.2943630218505860,55.5065307617187500,54,99,101,78,82,15533,0,0,0,0,2147125348,2147774125,2147574363,2147570331,3134,3,13,27288
1350829010,5810,985.4799804687500000,40.2273101806640600,566.2158813476562000,4.2930951118469240,55.5387191772460940,55,98,100,77,83,15538,0,0,0,0,2147126052,2147775433,2147575652,2147568000,3557,3,13,55468
1350832610,5809,978.2100219726562000,39.6411895751953100,566.0772094726562000,4.2973980903625490,55.6240196228027340,55,100,101,80,82,15540,0,0,0,0,2147123172,2147772918,2147574016,2147570148,159,3,13,43913
1350836210,5810,981.4799804687500000,40.3055381774902340,566.2102050781250000,4.2932701110839840,55.5321807861328100,55,107,101,78,83,15538,0,0,0,0,2147123721,2147773933,2147571410,2147569060,116,3,12,49664
1350839810,5809,988.2600097656250000,39.8976593017578100,565.6478271484375000,4.3107280731201170,55.5838699340820300,55,99,101,78,82,15539,0,0,0,0,2147127497,2147771501,2147573814,2147570048,3113,3,13,33674
1350843410,5812,992.4400024414062000,39.9476089477539060,565.7656250000000000,4.3070721626281740,55.5770492553710940,55,100,100,76,82,15532,0,0,0,0,2147121133,2147769563,2147574080,2147571410,51,3,13,15142
1350847010,5809,991.5700073242188000,39.9026298522949200,565.7048950195312000,4.3089561462402340,55.5873603820800800,54,99,101,78,82,15537,0,0,0,0,2147124461,2147771017,2147572416,2147566272,3408,3,13,37776
1350850610,5808,989.4299926757812000,39.7203407287597660,566.0648193359375000,4.2977848052978520,55.6182594299316400,55,101,101,79,82,15539,0,0,0,0,2147124790,2147772617,2147572123,2147569435,272,3,13,60749
1350854210,5812,987.1799926757812000,39.2972488403320300,566.0983276367188000,4.2967448234558105,55.6826515197753900,56,101,100,78,83,15536,0,0,0,0,2147124251,2147770194,2147575104,2147571300,167,3,13,44923
1350857810,5811,986.8599853515625000,39.3978118896484400,566.0895996093750000,4.2970142364501950,55.6628189086914060,56,106,99,78,83,15536,0,0,0,0,2147124827,2147770587,2147575378,2147572379,3302,3,13,43706
1350861410,5814,992.7199707031250000,39.1993103027343750,566.0651855468750000,4.2977700233459470,55.6966590881347660,55,99,101,78,83,15537,0,0,0,0,2147123035,2147774729,2147569462,2147570404,89,3,13,43488
1350865010,5810,989.6199951171875000,39.7377700805664060,566.1271972656250000,4.2958469390869140,55.6113510131835940,56,101,100,77,82,15537,0,0,0,0,2147124534,2147773979,2147565504,2147571218,2961,3,13,37042
1350868610,5813,987.9099731445312000,39.9694519042968750,566.1179809570312000,4.2961330413818360,55.5759391784668000,56,99,102,77,82,15535,0,0,0,0,2147122066,2147768566,2147575058,2147572406,3355,3,13,36172
1350872210,5811,987.1599731445312000,39.1617584228515600,566.0693969726562000,4.2976422309875490,55.7040596008300800,55,111,100,78,82,15531,0,0,0,0,2147123346,2147771922,2147573750,2147569792,3490,3,13,64026
1350875810,5811,993.7299804687500000,39.1784706115722660,566.0363159179688000,4.2986679077148440,55.6995086669921900,56,102,100,78,82,15531,0,0,0,0,2147125001,2147772818,2147574290,2147568804,65,3,13,62237
1350879410,5810,996.9400024414062000,39.4201393127441400,566.0239868164062000,4.2990489006042480,55.6596107482910160,56,100,100,79,83,15535,0,0,0,0,2147121097,2147773906,2147570605,2147572781,102,3,13,21540
1350883010,5809,994.1699829101562000,39.3768196105957000,566.0526733398438000,4.2981591224670410,55.6643295288085940,54,98,100,78,83,15520,0,0,0,0,2147124425,2147772845,2147573266,2147567725,186,3,13,53498
1350886610,5809,988.3099975585938000,39.1180305480957000,566.0548706054688000,4.2980899810791020,55.7059516906738300,56,101,100,78,81,15522,0,0,0,0,2147121993,2147767661,2147569782,2147571510,519,3,13,37353
1350890210,5808,986.7399902343750000,38.1279907226562500,565.4890747070312000,4.3156528472900390,55.8530998229980500,55,99,100,78,83,15521,0,0,0,0,2147122953,2147771520,2147572626,2147571556,111,3,13,38314
1350893810,5809,986.2600097656250000,38.0566291809082000,566.1697998046875000,4.2945227622985840,55.8712615966796900,56,98,101,78,82,15519,0,0,0,0,2147126948,2147773330,2147570285,2147568000,187,3,13,10196
1350897410,5811,982.8499755859375000,37.5108489990234400,566.1298828125000000,4.2957611083984375,55.9537010192871100,55,98,100,78,81,15518,0,0,0,0,2147124608,2147768969,2147568877,2147571437,34,3,13,22461
1350901010,5811,989.4899902343750000,38.1814002990722660,566.2122802734375000,4.2932028770446780,55.8533897399902340,55,97,100,76,82,15514,0,0,0,0,2147124480,2147769700,2147570349,2147569819,3533,3,13,5875
1350904610,5808,992.9099731445312000,38.8642883300781250,566.0584716796875000,4.2979788780212400,55.7435493469238300,55,99,101,77,82,15520,0,0,0,0,2147123492,2147772937,2147573778,2147568630,212,3,13,40726
1350908210,5807,991.0700073242188000,38.5653915405273440,565.9517822265625000,4.3012909889221190,55.7888603210449200,55,99,100,78,82,15521,0,0,0,0,2147120256,2147767954,2147571392,2147571209,334,3,13,25060
1350911810,5812,988.4400024414062000,37.6887512207031250,565.6599731445312000,4.3103499412536620,55.9174308776855500,56,98,100,79,83,15517,0,0,0,0,2147124736,2147770450,2147572973,2147567268,18,3,13,39562
1350915410,5809,990.5200195312500000,37.8114585876464840,565.5336914062500000,4.3142700195312500,55.9009017944335940,54,104,100,78,82,15516,0,0,0,0,2147126308,2147772489,2147572160,2147564973,198,3,13,23072
1350919010,5807,995.5399780273438000,39.1602210998535160,565.9932861328125000,4.3000030517578125,55.7011909484863300,55,107,101,77,82,15517,0,0,0,0,2147123218,2147768795,2147571739,2147569718,157,3,13,45414
1350922610,5811,986.9000244140625000,38.8811302185058600,565.6027832031250000,4.3121237754821780,55.7364997863769500,55,99,101,78,82,15518,0,0,0,0,2147123812,2147770322,2147572379,2147571145,3445,3,13,13866
1350926210,5809,997.2100219726562000,39.3675193786621100,566.0260009765625000,4.2989878654479980,55.6668014526367200,54,101,100,78,82,15516,0,0,0,0,2147122944,2147773732,2147575085,2147573421,179,3,13,61367
1350929810,5810,999.7100219726562000,38.2422599792480500,565.4171752929688000,4.3178839683532715,55.8317489624023440,55,99,100,79,82,15513,0,0,0,0,2147122761,2147767158,2147572342,2147570788,21,3,12,10865
1350933410,5807,999.7199707031250000,39.8757019042968750,566.1597290039062000,4.2948360443115230,55.5949516296386700,54,100,102,78,82,15528,0,0,0,0,2147122541,2147770550,2147573211,2147572032,492,3,13,31854
1350933956,5810,999.9899902343750000,39.9159698486328100,566.1696166992188000,4.2945308685302730,55.5890693664550800,55,100,99,78,83,15530,0,0,0,0,2147123620,2147767378,2147576256,2147571958,603,3,13,60620
